| time (UTC) | temp C | wind direction | speed KPH | gust KPH | rain 1hr cm | rain 24hr cm | rain mn cm | humidity % | barometer mb |
| 20260902213032 | 14 | 78 | 6.4 | 14.5 | 0.00 | 0.00 | 0.00 | ||
| 20260902210055 | 14 | 63 | 4.8 | 16.1 | 0.00 | 0.00 | 0.00 | ||
| 20260902203037 | 14 | 44 | 6.4 | 14.5 | 0.00 | 0.00 | 0.00 | ||
| 20260902200106 | 15 | 79 | 3.2 | 12.9 | 0.00 | 0.00 | 0.00 | ||
| 20260902193048 | 15 | 60 | 4.8 | 12.9 | 0.00 | 0.00 | 0.00 | ||
| 20260902190055 | 15 | 60 | 4.8 | 11.3 | 0.00 | 0.00 | 0.00 | ||
| 20260902183037 | 15 | 64 | 1.6 | 8.0 | 0.00 | 0.00 | 0.00 | ||
| 20260902173043 | 15 | 86 | 1.6 | 8.0 | 0.00 | 0.00 | 0.00 | ||
| 20260902170052 | 15 | 56 | 0.0 | 8.0 | 0.00 | 0.00 | 0.00 | ||
| 20260902160106 | 15 | 72 | 3.2 | 9.7 | 0.00 | 0.00 | 0.00 | ||
| 20260902153045 | 14 | 55 | 1.6 | 9.7 | 0.00 | 0.00 | 0.00 | ||
| 20260902150056 | 14 | 67 | 1.6 | 9.7 | 0.00 | 0.00 | 0.00 | ||
| 20260902143036 | 14 | 66 | 3.2 | 8.0 | 0.00 | 0.00 | 0.00 | ||
| 20260902133042 | 14 | 75 | 4.8 | 8.0 | 0.00 | 0.00 | 0.00 | ||
| 20260902130054 | 14 | 75 | 1.6 | 8.0 | 0.00 | 0.00 | 0.00 | ||
| 20260902123037 | 15 | 48 | 3.2 | 4.8 | 0.00 | 0.00 | 0.00 | ||
| 20260902113027 | 15 | 56 | 0.0 | 8.0 | 0.00 | 0.00 | 0.00 | ||
| 20260902110052 | 14 | 271 | 0.0 | 3.2 | 0.00 | 0.00 | 0.00 | ||
| 20260902103050 | 14 | 49 | 1.6 | 4.8 | 0.00 | 0.00 | 0.00 | ||
| 20260902093043 | 15 | 53 | 0.0 | 1.6 | 0.00 | 0.00 | 0.00 | ||
| 20260902090050 | 15 | 91 | 0.0 | 4.8 | 0.00 | 0.00 | 0.00 | ||
| 20260902083033 | 15 | 70 | 3.2 | 4.8 | 0.00 | 0.00 | 0.00 | ||
| 20260902080059 | 15 | 76 | 3.2 | 6.4 | 0.00 | 0.00 | 0.00 | ||
| 20260902073041 | 15 | 93 | 0.0 | 3.2 | 0.00 | 0.00 | 0.00 | ||
| 20260902070109 | 15 | 56 | 0.0 | 1.6 | 0.00 | 0.00 | 0.00 | ||
| 20260902063044 | 15 | 70 | 0.0 | 3.2 | 0.00 | 0.00 | 0.00 | ||
| 20260902060055 | 15 | 237 | 0.0 | 0.0 | 0.00 | 0.00 | 0.00 | ||
| 20260902050107 | 15 | 42 | 0.0 | 1.6 | 0.00 | 0.00 | 0.00 | ||
| 20260902043048 | 15 | 292 | 0.0 | 1.6 | 0.00 | 0.00 | 0.00 | ||
| 20260902040100 | 15 | 231 | 0.0 | 1.6 | 0.00 | 0.00 | 0.00 | ||
| 20260902033037 | 15 | 249 | 0.0 | 1.6 | 0.00 | 0.00 | 0.00 | ||
| 20260902023031 | 16 | 165 | 0.0 | 4.8 | 0.00 | 0.00 | 0.00 | ||
| 20260902020104 | 16 | 298 | 0.0 | 6.4 | 0.00 | 0.00 | 0.00 | ||
| 20260902013044 | 16 | 192 | 1.6 | 9.7 | 0.00 | 0.00 | 0.00 | ||
| 20260902010113 | 16 | 214 | 1.6 | 6.4 | 0.00 | 0.00 | 0.00 | ||
| 20260902000103 | 17 | 219 | 1.6 | 6.4 | 0.00 | 0.00 | 0.00 | ||
| 20260901233046 | 17 | 250 | 0.0 | 9.7 | 0.00 | 0.00 | 0.00 | ||
| 20260901230053 | 17 | 227 | 0.0 | 8.0 | 0.00 | 0.00 | 0.00 | ||
| 20260901223034 | 16 | 73 | 0.0 | 4.8 | 0.00 | 0.00 | 0.00 |